Tijuana, Mexico

12:42 PM PDT on August 28, 2016 (GMT -0700)
Tijuana

Weather History for 76001 - November, 2013

Change the Weather History Date:

Wednesday, November 27, 2013

  Actual Average Record
Temperature  
Mean Temperature 66 °F -  
Max Temperature 75 °F 66 °F - ()
Min Temperature 57 °F 45 °F - ()
Cooling Degree Days 1    
Growing Degree Days 16 (Base 50)    
Moisture  
Dew Point 36 °F    
Average Humidity 37    
Maximum Humidity 68    
Minimum Humidity 15    
Precipitation  
Precipitation 0.00 in - - ()
Sea Level Pressure  
Sea Level Pressure 29.99 in    
Wind  
Wind Speed 8 mph ()    
Max Wind Speed 21 mph    
Max Gust Speed -    
Visibility 7.6 miles    
Events      
T = Trace of Precipitation, MM = Missing Value Source: Averaged Metar Reports

Daily Weather History Graph

Daily Weather History Graph

Search for Another Location

Airport or City:

Trip Planner

Search our weather history database for the weather conditions in past years. The results will help you decide how hot, cold, wet, or windy it might be!

Date:

Astronomy

Nov. 27, 2013 Rise Set
Actual Time 6:28 AM PST 4:42 PM PST
Civil Twilight 6:01 AM PST 5:09 PM PST
Nautical Twilight 5:31 AM PST 5:39 PM PST
Astronomical Twilight 5:02 AM PST 6:09 PM PST
Moon 12:52 AM PST (11/27) 1:06 PM PST (11/27)
Length of Visible Light 11h 07m
Length of Day
10h 13m
Waning Crescent, 30% of the Moon is Illuminated
Nov 27
Waning Crescent
Dec 2
New
Dec 9
First Quarter
Dec 17
Full
Dec 25
Last Quarter

Hourly Weather History & Observations

Time (PST) Temp. Dew Point Humidity Pressure Visibility Wind Dir Wind Speed Gust Speed Precip Events Conditions
12:52 AM 64.4 °F 32.0 °F 30% 30.06 in 8.0 mi ESE 9.2 mph - N/A   Partly Cloudy
1:51 AM 64.4 °F 32.0 °F 30% 30.04 in 8.0 mi ESE 11.5 mph - N/A   Partly Cloudy
2:51 AM 64.4 °F 32.0 °F 30% 30.03 in 8.0 mi ESE 12.7 mph - N/A   Partly Cloudy
3:47 AM 64.4 °F 32.0 °F 30% 30.03 in 8.0 mi ESE 11.5 mph - N/A   Partly Cloudy
4:47 AM 62.6 °F 32.0 °F 32% 30.01 in 8.0 mi SE 8.1 mph - N/A   Partly Cloudy
5:43 AM 62.6 °F 32.0 °F 32% 30.01 in 8.0 mi ESE 6.9 mph - N/A   Partly Cloudy
6:46 AM 60.8 °F 32.0 °F 34% 30.03 in 10.0 mi ESE 5.8 mph - N/A   Mostly Cloudy
7:41 AM 64.4 °F 30.2 °F 28% 30.02 in 7.0 mi ESE 9.2 mph - N/A   Mostly Cloudy
8:42 AM 68.0 °F 30.2 °F 24% 30.02 in 7.0 mi East 10.4 mph - N/A   Mostly Cloudy
9:40 AM 69.8 °F 30.2 °F 23% 30.12 in 7.0 mi East 16.1 mph - N/A   Mostly Cloudy
10:40 AM 73.4 °F 26.6 °F 18% 29.98 in 7.0 mi East 20.7 mph - N/A   Scattered Clouds
11:40 AM 75.2 °F 24.8 °F 15% 29.95 in 7.0 mi NNE 11.5 mph - N/A   Scattered Clouds
12:44 PM 69.8 °F 44.6 °F 40% 30.04 in 7.0 mi West 12.7 mph - N/A   Scattered Clouds
1:40 PM 68.0 °F 48.2 °F 49% 29.91 in 7.0 mi WNW 11.5 mph - N/A   Scattered Clouds
2:46 PM 66.2 °F 51.8 °F 60% 29.92 in 10.0 mi WNW 9.2 mph - N/A   Clear
3:49 PM 64.4 °F 48.2 °F 56% 29.97 in 10.0 mi WNW 6.9 mph - N/A   Clear
4:45 PM 62.6 °F 50.0 °F 63% 29.93 in 7.0 mi North 6.9 mph - N/A   Clear
5:44 PM 60.8 °F 50.0 °F 68% 29.93 in 6.0 mi Calm Calm - N/A   Clear
6:50 PM 59.0 °F 46.4 °F 63% 29.97 in 6.0 mi Calm Calm - N/A   Clear
7:44 PM 57.2 °F 44.6 °F 63% 29.95 in 6.0 mi Calm Calm - N/A   Clear
8:46 PM 62.6 °F 28.4 °F 27% 29.95 in 6.0 mi East 8.1 mph - N/A   Clear
9:53 PM 62.6 °F 28.4 °F 27% 29.93 in 8.0 mi East 9.2 mph - N/A   Clear
10:42 PM 62.6 °F 28.4 °F 27% 29.93 in 8.0 mi ESE 9.2 mph - N/A   Clear
11:41 PM 60.8 °F 28.4 °F 29% 29.93 in 8.0 mi ESE 6.9 mph - N/A   Clear